User: anonymous   Login
Location: ??
(35.5052°N, 139.7262°E)
Time: 15:32:04
(UTC+00:00)
Language:

Cosmos 1937 Rocket - Orbit

View from above orbital plane
View from above orbital plane
View from above satellite
View from above satellite

Ground track
Ground track

The orbit data is extracted from the following two-line orbital elements,

1 19039U 88029B   21262.86586303  .00000078  00000-0  33823-4 0  9999
2 19039  74.0479 314.3091 0022445 101.8634 258.5039 14.38526766754204
Epoch (UTC): 19 September 2021 20:46:50
Eccentricity: 0.0022445
inclination: 74.0479°
perigee height: 747 km
apogee height: 779 km
right ascension of ascending node: 314.3091°
argument of perigee: 101.8634°
revolutions per day: 14.38526766
mean anomaly at epoch: 258.5039°
orbit number at epoch: 75420

The dashed part of the orbit path shows where the satellite is in the earth's shadow,  

DLR